Location: Unspecified
(50.0000°N, 15.0000°E)
Time: 08:31:35
(UTC+02:00)

ISS - Pass Details

Date: 21 September 2021
Orbit: 417 x 423 km, 51.6° (Epoch: 18 October)

Event Time Altitude Azimuth Distance (km) Brightness Sun altitude
Rises 21:39:18 0° 271° (W) 2,364 0.9 -24.9°
Reaches altitude 10° 21:41:25 10° 275° (W) 1,501 -0.2 -25.2°
Enters shadow 21:43:15 29° 285° (WNW) 794 -1.8 -25.5°
